Year,Month,Day,Hour,Minute,Value (Times are PST for temperature in C)
2016,04,05,00,00,7.20
2016,04,05,00,01,7.20
2016,04,05,00,02,7.20
2016,04,05,00,03,7.20
2016,04,05,00,04,7.20
2016,04,05,00,05,7.20
2016,04,05,00,06,7.30
2016,04,05,00,07,7.30
2016,04,05,00,08,7.30
2016,04,05,00,09,7.30
2016,04,05,00,10,7.30
2016,04,05,00,11,7.30
2016,04,05,00,12,7.30
2016,04,05,00,13,7.40
2016,04,05,00,14,7.40
2016,04,05,00,15,7.40
2016,04,05,00,16,7.40
2016,04,05,00,17,7.40
2016,04,05,00,18,7.40
2016,04,05,00,19,7.50
2016,04,05,00,20,7.50
2016,04,05,00,21,7.50
2016,04,05,00,22,7.60
2016,04,05,00,23,7.60
2016,04,05,00,24,7.60
2016,04,05,00,25,7.60
2016,04,05,00,26,7.60
2016,04,05,00,27,7.70
2016,04,05,00,28,7.70
2016,04,05,00,29,7.70
2016,04,05,00,30,7.70
2016,04,05,00,31,7.70
2016,04,05,00,32,7.70
2016,04,05,00,33,7.70
2016,04,05,00,34,7.70
2016,04,05,00,35,7.70
2016,04,05,00,36,7.70
2016,04,05,00,37,7.70
2016,04,05,00,38,7.70
2016,04,05,00,39,7.70
2016,04,05,00,40,7.70
2016,04,05,00,41,7.70
2016,04,05,00,42,7.70
2016,04,05,00,43,7.70
2016,04,05,00,44,7.70
2016,04,05,00,45,7.70
2016,04,05,00,46,7.70
2016,04,05,00,47,7.70
2016,04,05,00,48,7.70
2016,04,05,00,49,7.70
2016,04,05,00,50,7.70
2016,04,05,00,51,7.70
2016,04,05,00,52,7.70
2016,04,05,00,53,7.70
2016,04,05,00,54,7.70
2016,04,05,00,55,7.70
2016,04,05,00,56,7.70
2016,04,05,00,57,7.70
2016,04,05,00,58,7.70
2016,04,05,00,59,7.70
2016,04,05,01,00,7.70
2016,04,05,01,01,7.60
2016,04,05,01,02,7.60
2016,04,05,01,03,7.60
2016,04,05,01,04,7.60
2016,04,05,01,05,7.60
2016,04,05,01,06,7.60
2016,04,05,01,07,7.60
2016,04,05,01,08,7.60
2016,04,05,01,09,7.60
2016,04,05,01,10,7.60
2016,04,05,01,11,7.50
2016,04,05,01,12,7.50
2016,04,05,01,13,7.50
2016,04,05,01,14,7.50
2016,04,05,01,15,7.50
2016,04,05,01,16,7.40
2016,04,05,01,17,7.40
2016,04,05,01,18,7.40
2016,04,05,01,19,7.40
2016,04,05,01,20,7.50
2016,04,05,01,21,7.50
2016,04,05,01,22,7.50
2016,04,05,01,23,7.50
2016,04,05,01,24,7.50
2016,04,05,01,25,7.60
2016,04,05,01,26,7.60
2016,04,05,01,27,7.70
2016,04,05,01,28,7.70
2016,04,05,01,29,7.70
2016,04,05,01,30,7.70
2016,04,05,01,31,7.70
2016,04,05,01,32,7.70
2016,04,05,01,33,7.70
2016,04,05,01,34,7.70
2016,04,05,01,35,7.70
2016,04,05,01,36,7.70
2016,04,05,01,37,7.70
2016,04,05,01,38,7.70
2016,04,05,01,39,7.70
2016,04,05,01,40,7.70
2016,04,05,01,41,7.70
2016,04,05,01,42,7.70
2016,04,05,01,43,7.70
2016,04,05,01,44,7.70
2016,04,05,01,45,7.70
2016,04,05,01,46,7.70
2016,04,05,01,47,7.70
2016,04,05,01,48,7.80
2016,04,05,01,49,7.80
2016,04,05,01,50,7.80
2016,04,05,01,51,7.80
2016,04,05,01,52,7.80
2016,04,05,01,53,7.80
2016,04,05,01,54,7.80
2016,04,05,01,55,7.80
2016,04,05,01,56,7.90
2016,04,05,01,57,7.80
2016,04,05,01,58,7.80
2016,04,05,01,59,7.80
2016,04,05,02,00,7.80
2016,04,05,02,01,7.90
2016,04,05,02,02,7.90
2016,04,05,02,03,7.90
2016,04,05,02,04,7.90
2016,04,05,02,05,7.90
2016,04,05,02,06,7.90
2016,04,05,02,07,7.90
2016,04,05,02,08,8.00
2016,04,05,02,09,8.00
2016,04,05,02,10,8.00
2016,04,05,02,11,8.00
2016,04,05,02,12,8.10
2016,04,05,02,13,8.10
2016,04,05,02,14,8.10
2016,04,05,02,15,8.10
2016,04,05,02,16,8.10
2016,04,05,02,17,8.10
2016,04,05,02,18,8.10
2016,04,05,02,19,8.10
2016,04,05,02,20,8.00
2016,04,05,02,21,8.00
2016,04,05,02,22,8.00
2016,04,05,02,23,7.90
2016,04,05,02,24,7.90
2016,04,05,02,25,7.90
2016,04,05,02,26,7.90
2016,04,05,02,27,7.90
2016,04,05,02,28,7.90
2016,04,05,02,29,7.90
2016,04,05,02,30,7.90
2016,04,05,02,31,7.90
2016,04,05,02,32,7.90
2016,04,05,02,33,7.90
2016,04,05,02,34,7.90
2016,04,05,02,35,7.90
2016,04,05,02,36,7.90
2016,04,05,02,37,7.90
2016,04,05,02,38,7.90
2016,04,05,02,39,7.90
2016,04,05,02,40,7.90
2016,04,05,02,41,8.00
2016,04,05,02,42,8.00
2016,04,05,02,43,8.10
2016,04,05,02,44,8.10
2016,04,05,02,45,8.10
2016,04,05,02,46,8.10
2016,04,05,02,47,8.10
2016,04,05,02,48,8.20
2016,04,05,02,49,8.20
2016,04,05,02,50,8.20
2016,04,05,02,51,8.30
2016,04,05,02,52,8.30
2016,04,05,02,53,8.30
2016,04,05,02,54,8.30
2016,04,05,02,55,8.30
2016,04,05,02,56,8.40
2016,04,05,02,57,8.40
2016,04,05,02,58,8.40
2016,04,05,02,59,8.40
2016,04,05,03,00,8.40
2016,04,05,03,01,8.40
2016,04,05,03,02,8.50
2016,04,05,03,03,8.50
2016,04,05,03,04,8.50
2016,04,05,03,05,8.60
2016,04,05,03,06,8.60
2016,04,05,03,07,8.60
2016,04,05,03,08,8.60
2016,04,05,03,09,8.60
2016,04,05,03,10,8.60
2016,04,05,03,11,8.60
2016,04,05,03,12,8.70
2016,04,05,03,13,8.70
2016,04,05,03,14,8.70
2016,04,05,03,15,8.70
2016,04,05,03,16,8.70
2016,04,05,03,17,8.70
2016,04,05,03,18,8.70
2016,04,05,03,19,8.70
2016,04,05,03,20,8.70
2016,04,05,03,21,8.70
2016,04,05,03,22,8.70
2016,04,05,03,23,8.70
2016,04,05,03,24,8.70
2016,04,05,03,25,8.70
2016,04,05,03,26,8.70
2016,04,05,03,27,8.70
2016,04,05,03,28,8.70
2016,04,05,03,29,8.70
2016,04,05,03,30,8.70
2016,04,05,03,31,8.70
2016,04,05,03,32,8.70
2016,04,05,03,33,8.70
2016,04,05,03,34,8.70
2016,04,05,03,35,8.70
2016,04,05,03,36,8.70
2016,04,05,03,37,8.70
2016,04,05,03,38,8.70
2016,04,05,03,39,8.80
2016,04,05,03,40,8.80
2016,04,05,03,41,8.80
2016,04,05,03,42,8.80
2016,04,05,03,43,8.80
2016,04,05,03,44,8.80
2016,04,05,03,45,8.80
2016,04,05,03,46,8.80
2016,04,05,03,47,8.80
2016,04,05,03,48,8.80
2016,04,05,03,49,8.80
2016,04,05,03,50,8.90
2016,04,05,03,51,8.90
2016,04,05,03,52,8.90
2016,04,05,03,53,8.90
2016,04,05,03,54,8.90
2016,04,05,03,55,8.90
2016,04,05,03,56,8.90
2016,04,05,03,57,8.90
2016,04,05,03,58,8.90
2016,04,05,03,59,8.90
2016,04,05,04,00,8.90
2016,04,05,04,01,8.90
2016,04,05,04,02,8.90
2016,04,05,04,03,8.90
2016,04,05,04,04,8.90
2016,04,05,04,05,8.90
2016,04,05,04,06,8.90
2016,04,05,04,23,8.80
2016,04,05,04,24,8.80
2016,04,05,04,25,8.80
2016,04,05,04,26,8.80
2016,04,05,04,27,8.80
2016,04,05,04,28,8.80
2016,04,05,04,29,8.80
2016,04,05,04,30,8.80
2016,04,05,04,31,8.80
2016,04,05,04,32,8.80
2016,04,05,04,33,8.80
2016,04,05,04,34,8.80
2016,04,05,04,35,8.80
2016,04,05,04,36,8.80
2016,04,05,04,37,8.80
2016,04,05,04,38,8.80
2016,04,05,04,39,8.80
2016,04,05,04,40,8.80
2016,04,05,04,41,8.70
2016,04,05,04,42,8.70
2016,04,05,04,43,8.70
2016,04,05,04,44,8.70
2016,04,05,04,45,8.60
2016,04,05,04,46,8.60
2016,04,05,04,47,8.60
2016,04,05,04,48,8.50
2016,04,05,04,49,8.50
2016,04,05,04,50,8.50
2016,04,05,04,51,8.50
2016,04,05,04,52,8.40
2016,04,05,04,53,8.40
2016,04,05,04,54,8.40
2016,04,05,04,55,8.40
2016,04,05,04,56,8.40
2016,04,05,04,57,8.30
2016,04,05,04,58,8.30
2016,04,05,04,59,8.30
2016,04,05,05,00,8.30
2016,04,05,05,01,8.20
2016,04,05,05,02,8.20
2016,04,05,05,03,8.20
2016,04,05,05,04,8.10
2016,04,05,05,05,8.10
2016,04,05,05,06,8.10
2016,04,05,05,07,8.10
2016,04,05,05,08,8.00
2016,04,05,05,09,8.00
2016,04,05,05,10,8.00
2016,04,05,05,11,8.00
2016,04,05,05,12,8.00
2016,04,05,05,13,7.90
2016,04,05,05,14,7.90
2016,04,05,05,15,7.90
2016,04,05,05,16,7.90
2016,04,05,05,17,7.90
2016,04,05,05,18,7.90
2016,04,05,05,19,7.80
2016,04,05,05,20,7.80
2016,04,05,05,21,7.80
2016,04,05,05,22,7.80
2016,04,05,05,23,7.70
2016,04,05,05,24,7.70
2016,04,05,05,25,7.70
2016,04,05,05,26,7.70
2016,04,05,05,27,7.60
2016,04,05,05,28,7.60
2016,04,05,05,29,7.60
2016,04,05,05,30,7.50
2016,04,05,05,31,7.50
2016,04,05,05,32,7.50
2016,04,05,05,33,7.40
2016,04,05,05,34,7.40
2016,04,05,05,35,7.40
2016,04,05,05,36,7.40
2016,04,05,05,37,7.40
2016,04,05,05,38,7.40
2016,04,05,05,39,7.40
2016,04,05,05,40,7.30
2016,04,05,05,41,7.30
2016,04,05,05,42,7.30
2016,04,05,05,43,7.30
2016,04,05,05,44,7.30
2016,04,05,05,45,7.30
2016,04,05,05,46,7.30
2016,04,05,05,47,7.30
2016,04,05,05,48,7.30
2016,04,05,05,49,7.30
2016,04,05,05,50,7.30
2016,04,05,05,51,7.30
2016,04,05,05,52,7.30
2016,04,05,05,53,7.30
2016,04,05,05,54,7.30
2016,04,05,05,55,7.30
2016,04,05,05,56,7.30
2016,04,05,05,57,7.30
2016,04,05,05,58,7.30
2016,04,05,05,59,7.30
2016,04,05,06,00,7.30
2016,04,05,06,01,7.30
2016,04,05,06,02,7.30
2016,04,05,06,03,7.30
2016,04,05,06,04,7.30
2016,04,05,06,05,7.30
2016,04,05,06,06,7.30
2016,04,05,06,07,7.30
2016,04,05,06,08,7.30
2016,04,05,06,09,7.30
2016,04,05,06,10,7.30
2016,04,05,06,11,7.30
2016,04,05,06,12,7.30
2016,04,05,06,13,7.30
2016,04,05,06,14,7.30
2016,04,05,06,15,7.30
2016,04,05,06,16,7.20
2016,04,05,06,17,7.20
2016,04,05,06,18,7.20
2016,04,05,06,19,7.20
2016,04,05,06,20,7.20
2016,04,05,06,21,7.20
2016,04,05,06,22,7.20
2016,04,05,06,23,7.20
2016,04,05,06,24,7.20
2016,04,05,06,25,7.20
2016,04,05,06,26,7.20
2016,04,05,06,27,7.20
2016,04,05,06,28,7.20
2016,04,05,06,29,7.20
2016,04,05,06,30,7.20
2016,04,05,06,31,7.20
2016,04,05,06,32,7.20
2016,04,05,06,33,7.20
2016,04,05,06,34,7.20
2016,04,05,06,35,7.20
2016,04,05,06,36,7.20
2016,04,05,06,37,7.30
2016,04,05,06,38,7.30
2016,04,05,06,39,7.30
2016,04,05,06,40,7.30
2016,04,05,06,41,7.30
2016,04,05,06,42,7.30
2016,04,05,06,43,7.40
2016,04,05,06,44,7.40
2016,04,05,06,45,7.40
2016,04,05,06,46,7.40
2016,04,05,06,47,7.40
2016,04,05,06,48,7.50
2016,04,05,06,49,7.50
2016,04,05,06,50,7.50
2016,04,05,06,51,7.60
2016,04,05,06,52,7.60
2016,04,05,06,53,7.60
2016,04,05,06,54,7.60
2016,04,05,06,55,7.60
2016,04,05,06,56,7.70
2016,04,05,06,57,7.70
2016,04,05,06,58,7.80
2016,04,05,06,59,7.80
2016,04,05,07,00,7.80
2016,04,05,07,01,7.90
2016,04,05,07,02,7.90
2016,04,05,07,03,7.90
2016,04,05,07,04,7.90
2016,04,05,07,05,7.90
2016,04,05,07,06,7.90
2016,04,05,07,07,7.90
2016,04,05,07,08,7.90
2016,04,05,07,09,7.90
2016,04,05,07,10,7.90
2016,04,05,07,11,7.90
2016,04,05,07,12,7.90
2016,04,05,07,13,7.90
2016,04,05,07,14,7.90
2016,04,05,07,15,7.90
2016,04,05,07,16,7.90
2016,04,05,07,17,7.80
2016,04,05,07,18,7.80
2016,04,05,07,19,7.80
2016,04,05,07,20,7.80
2016,04,05,07,21,7.80
2016,04,05,07,22,7.80
2016,04,05,07,23,7.70
2016,04,05,07,24,7.70
2016,04,05,07,25,7.70
2016,04,05,07,26,7.70
2016,04,05,07,27,7.70
2016,04,05,07,28,7.70
2016,04,05,07,29,7.70
2016,04,05,07,30,7.70
2016,04,05,07,31,7.70
2016,04,05,07,32,7.70
2016,04,05,07,33,7.70
2016,04,05,07,34,7.70
2016,04,05,07,35,7.70
2016,04,05,07,36,7.60
2016,04,05,07,37,7.60
2016,04,05,07,38,7.60
2016,04,05,07,39,7.70
2016,04,05,07,40,7.70
2016,04,05,07,41,7.70
2016,04,05,07,42,7.70
2016,04,05,07,43,7.70
2016,04,05,07,44,7.70
2016,04,05,07,45,7.70
2016,04,05,07,46,7.70
2016,04,05,07,47,7.70
2016,04,05,07,48,7.70
2016,04,05,07,49,7.70
2016,04,05,07,50,7.70
2016,04,05,07,51,7.70
2016,04,05,07,52,7.70
2016,04,05,07,53,7.70
2016,04,05,07,54,7.70
2016,04,05,07,55,7.70
2016,04,05,07,56,7.70
2016,04,05,07,57,7.70
2016,04,05,07,58,7.70
2016,04,05,07,59,7.70
2016,04,05,08,00,7.70
2016,04,05,08,01,7.70
2016,04,05,08,02,7.70
2016,04,05,08,03,7.70
2016,04,05,08,04,7.70
2016,04,05,08,05,7.70
2016,04,05,08,06,7.70
2016,04,05,08,07,7.70
2016,04,05,08,08,7.70
2016,04,05,08,09,7.70
2016,04,05,08,10,7.70
2016,04,05,08,11,7.70
2016,04,05,08,12,7.70
2016,04,05,08,13,7.70
2016,04,05,08,14,7.70
2016,04,05,08,15,7.70
2016,04,05,08,16,7.70
2016,04,05,08,17,7.70
2016,04,05,08,18,7.70
2016,04,05,08,19,7.70
2016,04,05,08,20,7.70
2016,04,05,08,21,7.70
2016,04,05,08,22,7.70
2016,04,05,08,23,7.70
2016,04,05,08,24,7.70
2016,04,05,08,25,7.70
2016,04,05,08,26,7.70
2016,04,05,08,27,7.70
2016,04,05,08,28,7.80
2016,04,05,08,29,7.80
2016,04,05,08,30,7.80
2016,04,05,08,31,7.80
2016,04,05,08,32,7.80
2016,04,05,08,33,7.80
2016,04,05,08,34,7.80
2016,04,05,08,35,7.80
2016,04,05,08,36,7.80
2016,04,05,08,37,7.80
2016,04,05,08,38,7.80
2016,04,05,08,39,7.80
2016,04,05,08,40,7.80
2016,04,05,08,41,7.70
2016,04,05,08,42,7.70
2016,04,05,08,43,7.70
2016,04,05,08,44,7.70
2016,04,05,08,45,7.70
2016,04,05,08,46,7.70
2016,04,05,08,47,7.70
2016,04,05,08,48,7.70
2016,04,05,08,49,7.70
2016,04,05,08,50,7.70
2016,04,05,08,51,7.70
2016,04,05,08,52,7.70
2016,04,05,08,53,7.60
2016,04,05,08,54,7.70
2016,04,05,08,55,7.70
2016,04,05,08,56,7.70
2016,04,05,08,57,7.70
2016,04,05,08,58,7.70
2016,04,05,08,59,7.70
2016,04,05,09,00,7.70
2016,04,05,09,01,7.70
2016,04,05,09,02,7.70
2016,04,05,09,03,7.70
2016,04,05,09,04,7.70
2016,04,05,09,05,7.70
2016,04,05,09,06,7.70
2016,04,05,09,07,7.70
2016,04,05,09,08,7.70
2016,04,05,09,09,7.70
2016,04,05,09,10,7.70
2016,04,05,09,11,7.70
2016,04,05,09,12,7.60
2016,04,05,09,13,7.60
2016,04,05,09,14,7.60
2016,04,05,09,15,7.60
2016,04,05,09,16,7.60
2016,04,05,09,17,7.60
2016,04,05,09,18,7.60
2016,04,05,09,19,7.60
2016,04,05,09,20,7.50
2016,04,05,09,21,7.60
2016,04,05,09,22,7.50
2016,04,05,09,23,7.50
2016,04,05,09,24,7.50
2016,04,05,09,25,7.50
2016,04,05,09,26,7.50
2016,04,05,09,27,7.50
2016,04,05,09,28,7.50
2016,04,05,09,29,7.40
2016,04,05,09,30,7.40
2016,04,05,09,31,7.40
2016,04,05,09,32,7.40
2016,04,05,09,33,7.40
2016,04,05,09,34,7.50
2016,04,05,09,35,7.50
2016,04,05,09,36,7.50
2016,04,05,09,37,7.50
2016,04,05,09,38,7.50
2016,04,05,09,39,7.50
2016,04,05,09,40,7.50
2016,04,05,09,41,7.50
2016,04,05,09,42,7.50
2016,04,05,09,43,7.50
2016,04,05,09,44,7.50
2016,04,05,09,45,7.50
2016,04,05,09,46,7.60
2016,04,05,09,47,7.60
2016,04,05,09,48,7.60
2016,04,05,09,49,7.60
2016,04,05,09,50,7.60
2016,04,05,09,51,7.60
2016,04,05,09,52,7.60
2016,04,05,09,53,7.60
2016,04,05,09,54,7.60
2016,04,05,09,55,7.60
2016,04,05,09,56,7.60
2016,04,05,09,57,7.60
2016,04,05,09,58,7.60
2016,04,05,09,59,7.60
2016,04,05,10,00,7.60
2016,04,05,10,01,7.60
2016,04,05,10,02,7.60
2016,04,05,10,03,7.60
2016,04,05,10,04,7.60
2016,04,05,10,05,7.60
2016,04,05,10,06,7.60
2016,04,05,10,07,7.70
2016,04,05,10,08,7.70
2016,04,05,10,09,7.70
2016,04,05,10,10,7.70
2016,04,05,10,11,7.70
2016,04,05,10,12,7.70
2016,04,05,10,13,7.70
2016,04,05,10,14,7.70
2016,04,05,10,15,7.70
2016,04,05,10,16,7.70
2016,04,05,10,17,7.70
2016,04,05,10,18,7.70
2016,04,05,10,19,7.80
2016,04,05,10,20,7.80
2016,04,05,10,21,7.80
2016,04,05,10,22,7.80
2016,04,05,10,23,7.80
2016,04,05,10,24,7.80
2016,04,05,10,25,7.80
2016,04,05,10,26,7.80
2016,04,05,10,27,7.80
2016,04,05,10,28,7.90
2016,04,05,10,29,7.90
2016,04,05,10,30,7.90
2016,04,05,10,31,7.90
2016,04,05,10,32,7.90
2016,04,05,10,33,7.90
2016,04,05,10,34,7.90
2016,04,05,10,35,7.90
2016,04,05,10,36,8.00
2016,04,05,10,37,8.00
2016,04,05,10,38,8.00
2016,04,05,10,39,8.00
2016,04,05,10,40,8.10
2016,04,05,10,41,8.10
2016,04,05,10,42,8.10
2016,04,05,10,43,8.10
2016,04,05,10,44,8.10
2016,04,05,10,45,8.20
2016,04,05,10,46,8.20
2016,04,05,10,47,8.20
2016,04,05,10,48,8.20
2016,04,05,10,49,8.20
2016,04,05,10,50,8.20
2016,04,05,10,51,8.30
2016,04,05,10,52,8.30
2016,04,05,10,53,8.30
2016,04,05,10,54,8.30
2016,04,05,10,55,8.30
2016,04,05,10,56,8.30
2016,04,05,10,57,8.30
2016,04,05,10,58,8.30
2016,04,05,10,59,8.30
2016,04,05,11,00,8.30
2016,04,05,11,01,8.40
2016,04,05,11,02,8.40
2016,04,05,11,03,8.40
2016,04,05,11,04,8.40
2016,04,05,11,05,8.40
2016,04,05,11,06,8.40
2016,04,05,11,07,8.60
2016,04,05,11,08,8.60
2016,04,05,11,09,8.60
2016,04,05,11,10,8.60
2016,04,05,11,11,8.80
2016,04,05,11,12,8.80
2016,04,05,11,13,8.80
2016,04,05,11,14,8.80
2016,04,05,11,15,8.90
2016,04,05,11,16,8.90
2016,04,05,11,17,8.90
2016,04,05,11,18,8.90
2016,04,05,11,19,9.00
2016,04,05,11,20,9.00
2016,04,05,11,21,9.00
2016,04,05,11,22,9.10
2016,04,05,11,23,9.10
2016,04,05,11,24,9.10
2016,04,05,11,25,9.10
2016,04,05,11,26,9.10
2016,04,05,11,27,9.10
2016,04,05,11,28,9.10
2016,04,05,11,29,9.10
2016,04,05,11,30,9.10
2016,04,05,11,31,9.10
2016,04,05,11,32,9.10
2016,04,05,11,33,9.10
2016,04,05,15,31,10.70
2016,04,05,15,32,10.70
2016,04,05,15,33,10.70
2016,04,05,15,34,10.70
2016,04,05,15,35,10.70
2016,04,05,15,36,10.70
2016,04,05,15,37,10.70
2016,04,05,15,38,10.70
2016,04,05,15,39,10.60
2016,04,05,15,40,10.60
2016,04,05,15,41,10.60
2016,04,05,15,42,10.60
2016,04,05,15,43,10.60
2016,04,05,15,44,10.60
2016,04,05,15,45,10.60
2016,04,05,15,46,10.60
2016,04,05,15,47,10.60
2016,04,05,15,48,10.60
2016,04,05,15,49,10.60
2016,04,05,15,50,10.50
2016,04,05,15,51,10.50
2016,04,05,15,52,10.50
2016,04,05,15,53,10.60
2016,04,05,15,54,10.60
2016,04,05,15,55,10.60
2016,04,05,15,56,10.60
2016,04,05,15,57,10.60
2016,04,05,15,58,10.60
2016,04,05,15,59,10.60
2016,04,05,16,00,10.60
2016,04,05,16,01,10.60
2016,04,05,16,02,10.60
2016,04,05,16,03,10.60
2016,04,05,16,04,10.60
2016,04,05,16,05,10.60
2016,04,05,16,06,10.60
2016,04,05,16,07,10.60
2016,04,05,16,08,10.60
2016,04,05,16,09,10.60
2016,04,05,16,10,10.60
2016,04,05,16,11,10.60
2016,04,05,16,12,10.70
2016,04,05,16,13,10.70
2016,04,05,16,14,10.70
2016,04,05,16,15,10.70
2016,04,05,16,16,10.70
2016,04,05,16,17,10.70
2016,04,05,16,18,10.70
2016,04,05,16,19,10.70
2016,04,05,16,20,10.70
2016,04,05,16,21,10.70
2016,04,05,16,22,10.70
2016,04,05,16,23,10.70
2016,04,05,16,24,10.70
2016,04,05,16,25,10.80
2016,04,05,16,26,10.80
2016,04,05,16,27,10.80
2016,04,05,16,28,10.80
2016,04,05,16,29,10.80
2016,04,05,16,30,10.80
2016,04,05,16,31,10.80
2016,04,05,16,32,10.80
2016,04,05,16,33,10.80
2016,04,05,16,34,10.80
2016,04,05,16,35,10.80
2016,04,05,16,36,10.80
2016,04,05,16,37,10.90
2016,04,05,16,38,10.90
2016,04,05,16,39,10.90
2016,04,05,16,40,10.90
2016,04,05,16,41,10.90
2016,04,05,16,42,10.90
2016,04,05,16,43,10.90
2016,04,05,16,44,10.90
2016,04,05,16,45,10.90
2016,04,05,16,46,10.90
2016,04,05,16,47,10.90
2016,04,05,16,48,10.80
2016,04,05,16,49,10.80
2016,04,05,16,50,10.80
2016,04,05,16,51,10.80
2016,04,05,16,52,10.80
2016,04,05,16,53,10.80
2016,04,05,16,54,10.80
2016,04,05,16,55,10.70
2016,04,05,16,56,10.70
2016,04,05,16,57,10.70
2016,04,05,16,58,10.70
2016,04,05,16,59,10.70
2016,04,05,17,00,10.70
2016,04,05,17,01,10.70
2016,04,05,17,02,10.70
2016,04,05,17,03,10.70
2016,04,05,17,04,10.70
2016,04,05,17,05,10.70
2016,04,05,17,06,10.70
2016,04,05,17,07,10.70
2016,04,05,17,08,10.70
2016,04,05,17,09,10.70
2016,04,05,17,10,10.70
2016,04,05,17,11,10.70
2016,04,05,17,12,10.70
2016,04,05,17,13,10.70
2016,04,05,17,14,10.70
2016,04,05,17,15,10.70
2016,04,05,17,16,10.70
2016,04,05,17,17,10.70
2016,04,05,17,18,10.70
2016,04,05,17,19,10.70
2016,04,05,17,20,10.70
2016,04,05,17,21,10.70
2016,04,05,17,22,10.70
2016,04,05,17,23,10.70
2016,04,05,17,24,10.70
2016,04,05,17,25,10.70
2016,04,05,17,26,10.70
2016,04,05,17,27,10.70
2016,04,05,17,28,10.70
2016,04,05,17,29,10.80
2016,04,05,17,30,10.80
2016,04,05,17,31,10.80
2016,04,05,17,32,10.80
2016,04,05,17,33,10.80
2016,04,05,17,34,10.90
2016,04,05,17,35,10.90
2016,04,05,17,36,11.00
2016,04,05,17,37,11.00
2016,04,05,17,38,11.00
2016,04,05,17,39,11.00
2016,04,05,17,40,11.10
2016,04,05,17,41,11.10
2016,04,05,17,42,11.10
2016,04,05,17,43,11.10
2016,04,05,17,44,11.10
2016,04,05,17,45,11.10
2016,04,05,17,46,11.10
2016,04,05,17,47,11.10
2016,04,05,17,48,11.10
2016,04,05,17,49,11.00
2016,04,05,17,50,11.00
2016,04,05,17,51,11.00
2016,04,05,17,52,11.00
2016,04,05,17,53,11.00
2016,04,05,17,54,10.90
2016,04,05,17,55,10.90
2016,04,05,17,56,10.90
2016,04,05,17,57,10.90
2016,04,05,17,58,10.90
2016,04,05,17,59,10.80
2016,04,05,18,00,10.80
2016,04,05,18,01,10.80
2016,04,05,18,02,10.80
2016,04,05,18,03,10.80
2016,04,05,18,04,10.80
2016,04,05,18,05,10.80
2016,04,05,18,06,10.80
2016,04,05,18,07,10.70
2016,04,05,18,08,10.70
2016,04,05,18,09,10.70
2016,04,05,18,10,10.70
2016,04,05,18,11,10.70
2016,04,05,18,12,10.60
2016,04,05,18,13,10.60
2016,04,05,18,14,10.60
2016,04,05,18,15,10.60
2016,04,05,18,16,10.60
2016,04,05,18,17,10.60
2016,04,05,18,18,10.60
2016,04,05,18,19,10.60
2016,04,05,18,20,10.60
2016,04,05,18,21,10.60
2016,04,05,18,22,10.60
2016,04,05,18,23,10.60
2016,04,05,18,24,10.60
2016,04,05,18,25,10.60
2016,04,05,18,26,10.60
2016,04,05,18,27,10.60
2016,04,05,18,28,10.60
2016,04,05,18,29,10.60
2016,04,05,18,30,10.60
2016,04,05,18,31,10.60
2016,04,05,18,32,10.60
2016,04,05,18,33,10.60
2016,04,05,18,34,10.60
2016,04,05,18,35,10.60
2016,04,05,18,36,10.60
2016,04,05,18,37,10.70
2016,04,05,18,38,10.70
2016,04,05,18,39,10.70
2016,04,05,18,40,10.70
2016,04,05,18,41,10.70
2016,04,05,18,42,10.70
2016,04,05,18,43,10.70
2016,04,05,18,44,10.70
2016,04,05,18,45,10.70
2016,04,05,18,46,10.70
2016,04,05,18,47,10.70
2016,04,05,18,48,10.70
2016,04,05,18,49,10.70
2016,04,05,18,50,10.70
2016,04,05,18,51,10.70
2016,04,05,18,52,10.70
2016,04,05,18,53,10.70
2016,04,05,18,54,10.70
2016,04,05,18,55,10.60
2016,04,05,18,56,10.60
2016,04,05,18,57,10.60
2016,04,05,18,58,10.60
2016,04,05,18,59,10.60
2016,04,05,19,00,10.50
2016,04,05,19,01,10.50
2016,04,05,19,02,10.50
2016,04,05,19,03,10.50
2016,04,05,19,04,10.40
2016,04,05,19,05,10.40
2016,04,05,19,06,10.40
2016,04,05,19,07,10.40
2016,04,05,19,08,10.40
2016,04,05,19,09,10.40
2016,04,05,19,10,10.40
2016,04,05,19,11,10.40
2016,04,05,19,12,10.40
2016,04,05,19,13,10.40
2016,04,05,19,14,10.40
2016,04,05,19,15,10.40
2016,04,05,19,16,10.40
2016,04,05,19,17,10.40
2016,04,05,19,18,10.40
2016,04,05,19,19,10.40
2016,04,05,19,20,10.40
2016,04,05,19,21,10.40
2016,04,05,19,22,10.40
2016,04,05,19,23,10.40
2016,04,05,19,24,10.40
2016,04,05,19,25,10.40
2016,04,05,19,26,10.40
2016,04,05,19,27,10.40
2016,04,05,19,28,10.40
2016,04,05,19,29,10.40
2016,04,05,19,30,10.40
2016,04,05,19,31,10.40
2016,04,05,19,32,10.40
2016,04,05,19,33,10.40
2016,04,05,19,34,10.40
2016,04,05,19,35,10.40
2016,04,05,19,36,10.40
2016,04,05,19,37,10.40
2016,04,05,19,38,10.40
2016,04,05,19,39,10.40
2016,04,05,19,40,10.40
2016,04,05,19,41,10.40
2016,04,05,19,42,10.40
2016,04,05,19,43,10.40
2016,04,05,19,44,10.40
2016,04,05,19,45,10.40
2016,04,05,19,46,10.40
2016,04,05,19,47,10.40
2016,04,05,19,48,10.40
2016,04,05,19,49,10.40
2016,04,05,19,50,10.40
2016,04,05,19,51,10.40
2016,04,05,19,52,10.40
2016,04,05,19,53,10.40
2016,04,05,19,54,10.40
2016,04,05,19,55,10.30
2016,04,05,19,56,10.30
2016,04,05,19,57,10.30
2016,04,05,19,58,10.30
2016,04,05,19,59,10.30
2016,04,05,20,00,10.30
2016,04,05,20,01,10.30
2016,04,05,20,02,10.30
2016,04,05,20,03,10.30
2016,04,05,20,04,10.30
2016,04,05,20,05,10.30
2016,04,05,20,06,10.20
2016,04,05,20,07,10.20
2016,04,05,20,08,10.20
2016,04,05,20,09,10.20
2016,04,05,20,10,10.20
2016,04,05,20,11,10.10
2016,04,05,20,12,10.10
2016,04,05,20,13,10.10
2016,04,05,20,14,10.10
2016,04,05,20,15,10.10
2016,04,05,20,16,10.10
2016,04,05,20,17,10.10
2016,04,05,20,18,10.10
2016,04,05,20,19,10.10
2016,04,05,20,20,10.10
2016,04,05,20,21,10.10
2016,04,05,20,22,10.10
2016,04,05,20,23,10.10
2016,04,05,20,24,10.10
2016,04,05,20,25,10.10
2016,04,05,20,26,10.10
2016,04,05,20,27,10.20
2016,04,05,20,28,10.20
2016,04,05,20,29,10.20
2016,04,05,20,30,10.20
2016,04,05,20,31,10.20
2016,04,05,20,32,10.20
2016,04,05,20,33,10.20
2016,04,05,20,34,10.20
2016,04,05,20,35,10.20
2016,04,05,20,36,10.20
2016,04,05,20,37,10.20
2016,04,05,20,38,10.20
2016,04,05,20,39,10.20
2016,04,05,20,40,10.20
2016,04,05,20,41,10.20
2016,04,05,20,42,10.20
2016,04,05,20,43,10.20
2016,04,05,20,44,10.20
2016,04,05,20,45,10.20
2016,04,05,20,46,10.20
2016,04,05,20,47,10.20
2016,04,05,20,48,10.20
2016,04,05,20,49,10.20
2016,04,05,20,50,10.20
2016,04,05,20,51,10.20
2016,04,05,20,52,10.20
2016,04,05,20,53,10.20
2016,04,05,20,54,10.20
2016,04,05,20,55,10.30
2016,04,05,20,56,10.30
2016,04,05,20,57,10.30
2016,04,05,20,58,10.30
2016,04,05,20,59,10.30
2016,04,05,21,00,10.30
2016,04,05,21,01,10.30
2016,04,05,21,02,10.30
2016,04,05,21,03,10.30
2016,04,05,21,04,10.20
2016,04,05,21,05,10.30
2016,04,05,21,06,10.30
2016,04,05,21,07,10.30
2016,04,05,21,08,10.30
2016,04,05,21,09,10.30
2016,04,05,21,10,10.30
2016,04,05,21,11,10.30
2016,04,05,21,12,10.30
2016,04,05,21,13,10.30
2016,04,05,21,14,10.30
2016,04,05,21,15,10.20
2016,04,05,21,16,10.20
2016,04,05,21,17,10.20
2016,04,05,21,18,10.20
2016,04,05,21,19,10.20
2016,04,05,21,20,10.20
2016,04,05,21,21,10.20
2016,04,05,21,22,10.20
2016,04,05,21,23,10.30
2016,04,05,21,24,10.30
2016,04,05,21,25,10.30
2016,04,05,21,26,10.30
2016,04,05,21,27,10.30
2016,04,05,21,28,10.30
2016,04,05,21,29,10.20
2016,04,05,21,30,10.20
2016,04,05,21,31,10.20
2016,04,05,21,32,10.20
2016,04,05,21,33,10.20
2016,04,05,21,34,10.20
2016,04,05,21,35,10.20
2016,04,05,21,36,10.20
2016,04,05,21,37,10.20
2016,04,05,21,38,10.20
2016,04,05,21,39,10.20
2016,04,05,21,40,10.20
2016,04,05,21,41,10.20
2016,04,05,21,42,10.20
2016,04,05,21,43,10.20
2016,04,05,21,44,10.10
2016,04,05,21,45,10.10
2016,04,05,21,46,10.10
2016,04,05,21,47,10.10
2016,04,05,21,48,10.10
2016,04,05,21,49,10.10
2016,04,05,21,50,10.10
2016,04,05,21,51,10.10
2016,04,05,21,52,10.20
2016,04,05,21,53,10.20
2016,04,05,21,54,10.20
2016,04,05,21,55,10.20
2016,04,05,21,56,10.20
2016,04,05,21,57,10.20
2016,04,05,21,58,10.20
2016,04,05,21,59,10.20
2016,04,05,22,00,10.30
2016,04,05,22,01,10.30